Location: San Gennaro Vesuviano
(40.8833°N, 14.5333°E)
Time: 21:32:24
(UTC+00:00)

SL-16 R/B - Pass Details

Date: 22 April 2021
Orbit: 840 x 849 km, 71.0° (Epoch: 10 May)

Event Time Altitude Azimuth Distance (km) Brightness Sun altitude
Rises 19:33:52 0° 343° (NNW) 3,420 6.2 -18.5°
Reaches altitude 10° 19:36:31 10° 351° (N) 2,479 5.3 -18.9°
Maximum altitude 19:41:48 38° 59° (ENE) 1,276 2.9 -19.7°
Enters shadow 19:43:24 32° 94° (E) 1,431 2.9 -19.9°
